Погода в Ле-Пюи-ан-Веле

Франция     45°02′31″N   3°52′54″E
темп.,
°C
ветер,
м/с
пор.,
м/с
влажн.,
%
обл.,
%
осадки,
мм/ч
давл.,
гПа
погр.,
м
11 мая, вт
вт1123:00+6ссз13100100 4.3 1011252
02:00+5св13100100 9.1 1012225
05:00+6сз25100100 4.9 1009429
08:00+4вюв1199100 15.3 101196
11:00+7зсз2692100 0.6 1012601
14:00+8зсз368899 2.4 1012939
17:00+5зсз3109692 0.5 1016739
20:00+7сз487750 0.6 10161051
12 мая, ср
ср1223:00+2з24975 0.1 1019115
02:00+1зюз11973 0.1 101912
05:000юз11979 0.0 101810
08:00+3зсз01885 0.0 1017117
11:00+10ссз22455 0.0 10131012
14:00+14сз233794 0.0 10102023
17:00+10з347376 0.5 10111160
20:00+7сз149537 2.1 1012231
13 мая, чт
чт1323:00+4юз2798100 0.0 1014239
02:00+5зсз499899 0.3 1013832
05:00+2зсз4987100 0.1 1015922
08:00+3зсз288047 0.1 1015552
11:00+8сз476995 0.1 10131227
14:00+6ссз357744 0.3 1013804
17:00+10зсз355756 0.5 10101616
20:00+7с129050 1.3 1010115
14 мая, пт
пт1423:00+3ююв1195100 0.0 101211
02:00+3ю1195100 0.0 101211
05:00+4юз119680 0.0 101118
08:00+5зсз119490 0.1 1012132
11:00+10сз34538 0.2 10111548
14:00+11зсз46529 0.8 10111826
17:00+12сз6748100 0.1 10102165
20:00+7зсз4108624 0.9 10131003
15 мая, сб
сб1523:00+5зсз3989100 0.1 1016931
02:00+5зсз2891100 0.1 1016735
05:00+4зюз129796 0.1 1016129
08:00+5ю1188100 0.1 1015123
11:00+10юз2451100 0.0 1013958
14:00+6ю2796100 1.9 1014465
17:00+6ююз31195100 1.3 1012715
20:00+7юз31197100 1.9 1013679